Simultaneous Nadir Overpasses (SNOs) Predictions

Prediction of SNOs between NOAA-20 and LANDSAT-8 Satellite Orbit:

Table of predicted SNOs for the next 14.0 days since TLE Epoch: 12/12/2020
Index Date (NOAA-20) Time (NOAA-20) Lat,Lon (NOAA-20) SZA (NOAA-20 ) Date (LANDSAT-8) Time (LANDSAT-8) Lat,Lon (LANDSAT-8) SZA (LANDSAT-8 ) Distance(km) Time Diff (sec)
1 12/12/2020 07:22:57 -70.02,-114.44 86.96 12/12/2020 07:23:31 -70.00,-114.50 86.99 3.01 34
2 12/12/2020 08:13:41 69.90, 53.05 92.92 12/12/2020 08:12:58 69.90, 53.00 92.92 1.88 43
3 12/14/2020 22:49:16 70.37,-166.54 93.57 12/14/2020 22:50:27 70.27,-165.87 93.45 27.66 71
4 12/14/2020 23:39:52 -69.97, 1.40 86.85 12/14/2020 23:40:00 -69.99, 1.37 86.83 2.62 8
5 12/15/2020 00:30:37 69.90, 168.81 93.09 12/15/2020 00:29:27 69.89, 168.87 93.07 2.72 70
6 12/17/2020 15:06:05 70.06, -50.29 93.36 12/17/2020 15:06:58 70.09, -50.25 93.38 2.98 53
7 12/17/2020 15:56:47 -69.98, 117.16 86.73 12/17/2020 15:56:28 -69.98, 117.24 86.73 2.91 19
8 12/17/2020 16:47:16 69.06, -74.20 92.34 12/17/2020 16:46:09 69.10, -76.31 92.41 83.92 67
9 12/20/2020 07:23:00 70.02, 65.55 93.37 12/20/2020 07:23:28 70.01, 65.53 93.36 1.47 28
10 12/20/2020 08:13:42 -69.93,-127.00 86.72 12/20/2020 08:12:58 -69.91,-126.98 86.75 2.68 44
11 12/22/2020 22:49:16 -70.36, 13.49 86.28 12/22/2020 22:50:27 -70.26, 14.12 86.40 25.88 71
12 12/22/2020 23:39:55 69.98,-178.62 93.33 12/22/2020 23:39:57 69.98,-178.63 93.33 0.63 2
13 12/23/2020 00:30:37 -69.89, -11.16 86.77 12/23/2020 00:29:27 -69.88, -11.14 86.77 1.06 70
14 12/25/2020 15:06:06 -70.05, 129.73 86.65 12/25/2020 15:06:59 -70.07, 129.73 86.64 1.90 53
15 12/25/2020 15:56:50 69.94, -62.79 93.24 12/25/2020 15:56:26 69.95, -62.80 93.25 1.16 24



Historial Predications of SNOs between NOAA-20 and LANDSAT-8
